TDRS 3 (19548 NORAD) Tracking and Keplerian Element Data

This shows tracking and keplerian element data for the satellite.

Feedback or suggestion? Click here.




ElementValue
Catalog19548
NameTDRS 3
Epoch Orbit11795
Epoch Day159.91352203
Epoch Year2024
RAAN345.9918
Inclination13.1695
Eccentricity0.0034881
Argument of Perigee342.351
Mean Anonmoly208.4625
Mean Motion1.00275058
Decay Rate-3.06E-06
L11 19548U 88091B 24159.91352203 -.00000306 00000+0 00000+0 0 9997
L22 19548 13.1695 345.9918 0034881 342.3510 208.4625 1.00275058117953



Live tracking and technical data element details for TDRS 3 (NORAD 19548). TDRS 3 can be tracked NOW for your location showing map with azimuth and elevation plus other details from your city location.







IsCatalogInMostPopularTable: catalog: 19548, numindb: 595
Update: records affected: 1



GetName: 19548 TDRS 3

Hit Count: updated at: Fri, 14 Jun 2024 19:16:13 GMT